sat.trackr.live / text

‹ back to catalog

STARLINK-37907

NORAD 69959 · 2026-157S

PAYLOAD ACTIVE UNKNOWN

§ Identity

Operator
Country
US
Launch date
2026-07-09
Launch site
AFETR
Launch vehicle
Mass (kg)
RCS (m²)

Purposes: comms

External: N2YO · Heavens-Above · Gunter

§ Orbital elements

Epoch: 2026-09-20T04:51:25.619904Z

Period
93.85 min
Inclination
53.1588°
Eccentricity
0.0001363
Mean motion
15.34399130 rev/d
Perigee alt
461.8 km
Apogee alt
463.6 km
Semi-major
6,840.8 km
B*
3.1475e-4
RAAN
335.3638°
Arg perigee
86.2613°
Mean anomaly
273.8546°
Rev number
1,132

§ Raw data

STARLINK-379071 69959U 26157S   26263.20237986  .00010272  00000+0  31475-3 0  99992 69959  53.1588 335.3638 0001363  86.2613 273.8546 15.34399130 11320

JSON: /api/v1/satellites/69959 · /tle

For live sub-satellite position, see the globe view (requires WebGL).

§ Visibility from observer

Set your observer location to see the next 7 days of passes ≥ 10°. The values pass through the URL so the page stays shareable.

No JS? Fill the form by hand. The geolocation button needs JavaScript.